TimeEDT,TemperatureF,Dew PointF,Humidity,Sea Level PressureIn,VisibilityMPH,Wind Direction,Wind SpeedMPH,Gust SpeedMPH,PrecipitationIn,Events,Conditions,WindDirDegrees,DateUTC
12:51 AM,75.0,69.1,82,30.01,10.0,West,3.5,-,N/A,,Clear,270,2013-09-09 04:51:00
1:51 AM,72.0,68.0,87,30.01,10.0,Calm,Calm,-,N/A,,Clear,0,2013-09-09 05:51:00
2:51 AM,72.0,68.0,87,30.01,10.0,West,3.5,-,N/A,,Clear,260,2013-09-09 06:51:00
3:51 AM,71.1,68.0,90,30.00,10.0,Calm,Calm,-,N/A,,Clear,0,2013-09-09 07:51:00
4:51 AM,72.0,70.0,93,30.01,10.0,Calm,Calm,-,N/A,,Clear,0,2013-09-09 08:51:00
5:51 AM,71.1,68.0,90,30.04,9.0,Calm,Calm,-,N/A,,Clear,0,2013-09-09 09:51:00
6:51 AM,71.1,68.0,90,30.06,6.0,Calm,Calm,-,N/A,,Clear,0,2013-09-09 10:51:00
7:51 AM,79.0,73.9,84,30.07,10.0,Calm,Calm,-,N/A,,Clear,0,2013-09-09 11:51:00
8:51 AM,81.0,73.0,77,30.09,10.0,Variable,3.5,-,N/A,,Clear,0,2013-09-09 12:51:00
9:51 AM,82.9,71.1,67,30.12,10.0,ENE,6.9,-,N/A,,Clear,60,2013-09-09 13:51:00
10:51 AM,84.0,69.1,61,30.12,10.0,NE,8.1,-,N/A,,Clear,50,2013-09-09 14:51:00
11:51 AM,84.9,69.1,59,30.13,10.0,ENE,8.1,-,N/A,,Clear,60,2013-09-09 15:51:00
12:51 PM,88.0,69.1,53,30.13,10.0,ESE,10.4,-,N/A,,Clear,120,2013-09-09 16:51:00
1:51 PM,87.1,69.1,55,30.13,10.0,ESE,11.5,-,N/A,,Clear,120,2013-09-09 17:51:00
2:51 PM,87.1,70.0,57,30.12,10.0,ESE,9.2,-,N/A,,Clear,120,2013-09-09 18:51:00
3:51 PM,87.1,68.0,53,30.12,10.0,ESE,10.4,-,N/A,,Clear,120,2013-09-09 19:51:00
4:51 PM,84.9,66.9,55,30.12,10.0,Variable,5.8,-,N/A,,Clear,0,2013-09-09 20:51:00
5:51 PM,82.9,70.0,65,30.12,10.0,ENE,5.8,-,N/A,,Clear,70,2013-09-09 21:51:00
6:51 PM,80.1,71.1,74,30.12,10.0,ENE,5.8,-,N/A,,Clear,70,2013-09-09 22:51:00
7:51 PM,77.0,71.1,82,30.13,10.0,ENE,4.6,-,N/A,,Clear,60,2013-09-09 23:51:00
8:51 PM,75.9,71.1,85,30.14,10.0,ENE,4.6,-,N/A,,Clear,70,2013-09-10 00:51:00
9:51 PM,75.0,69.1,82,30.15,10.0,NE,4.6,-,N/A,,Clear,50,2013-09-10 01:51:00
10:51 PM,75.0,69.1,82,30.16,10.0,ENE,4.6,-,N/A,,Clear,60,2013-09-10 02:51:00
11:51 PM,75.0,68.0,79,30.16,10.0,ENE,4.6,-,N/A,,Clear,60,2013-09-10 03:51:00